• en Suisse
  • Liste des pays
  • À 7 jours
  • Température de l'eau
  • Carte satellitaire
  • Carte météo
  • Widgets météo
  • user-avatar
    Se connecter

    Météo par heure à Serdytsya

    Ce jour, 19 Avril, Jeudi

    Heure Température Précipitation Vent Pression Humidité
    00:00 +10°C° 0 mm 3 m/s 745 mmHg 82%
    01:00 +9°C° 0 mm 3 m/s 745 mmHg 84%
    02:00 +8°C° 0 mm 2 m/s 745 mmHg 88%
    03:00 +8°C° 0 mm 2 m/s 745 mmHg 88%
    04:00 +8°C° 0 mm 3 m/s 744 mmHg 88%
    05:00 +8°C° 0 mm 3 m/s 744 mmHg 87%
    06:00 +10°C° 0 mm 4 m/s 744 mmHg 82%
    07:00 +10°C° 0 mm 5 m/s 744 mmHg 77%
    08:00 +11°C° 0 mm 6 m/s 743 mmHg 71%
    09:00 +14°C° 0 mm 6 m/s 743 mmHg 68%
    10:00 +15°C° 0 mm 7 m/s 743 mmHg 64%
    11:00 +17°C° 0 mm 7 m/s 743 mmHg 61%
    12:00 +17°C° 0 mm 7 m/s 742 mmHg 58%
    13:00 +18°C° 0 mm 7 m/s 742 mmHg 55%
    14:00 +20°C° 0 mm 8 m/s 742 mmHg 51%
    15:00 +18°C° 0 mm 7 m/s 741 mmHg 52%
    16:00 +18°C° 0 mm 7 m/s 741 mmHg 53%
    17:00 +17°C° 0 mm 7 m/s 741 mmHg 54%
    18:00 +16°C° 0 mm 6 m/s 741 mmHg 58%
    19:00 +14°C° 0 mm 5 m/s 741 mmHg 62%
    20:00 +13°C° 0 mm 5 m/s 741 mmHg 67%
    21:00 +12°C° 0 mm 5 m/s 741 mmHg 68%
    22:00 +10°C° 0 mm 5 m/s 742 mmHg 69%
    23:00 +9°C° 0 mm 5 m/s 742 mmHg 70%

    Demain, 20 Avril, Vendredi

    Heure Température Précipitation Vent Pression Humidité
    00:00 +10°C° 0 mm 4 m/s 742 mmHg 72%
    01:00 +8°C° 0 mm 4 m/s 742 mmHg 75%
    02:00 +7°C° 0 mm 4 m/s 743 mmHg 78%
    03:00 +7°C° 0 mm 3 m/s 743 mmHg 81%
    04:00 +7°C° 0 mm 3 m/s 743 mmHg 84%
    05:00 +5°C° 0 mm 3 m/s 743 mmHg 87%
    06:00 +7°C° 0 mm 3 m/s 743 mmHg 83%
    07:00 +8°C° 0 mm 3 m/s 743 mmHg 79%
    08:00 +8°C° 0 mm 4 m/s 744 mmHg 75%
    09:00 +10°C° 0 mm 4 m/s 744 mmHg 70%
    10:00 +12°C° 0 mm 4 m/s 744 mmHg 64%
    11:00 +13°C° 0 mm 4 m/s 744 mmHg 59%
    12:00 +14°C° 0 mm 4 m/s 744 mmHg 55%
    13:00 +15°C° 0 mm 4 m/s 743 mmHg 52%
    14:00 +17°C° 0 mm 4 m/s 743 mmHg 49%
    15:00 +17°C° 0 mm 4 m/s 743 mmHg 50%
    16:00 +17°C° 0 mm 3 m/s 743 mmHg 50%
    17:00 +17°C° 0 mm 3 m/s 742 mmHg 50%
    18:00 +15°C° 0 mm 2 m/s 742 mmHg 56%
    19:00 +13°C° 0 mm 2 m/s 742 mmHg 62%
    20:00 +11°C° 0 mm 1 m/s 742 mmHg 68%
    21:00 +11°C° 0 mm 1 m/s 742 mmHg 69%
    22:00 +10°C° 0 mm 1 m/s 742 mmHg 70%
    23:00 +10°C° 0 mm 1 m/s 742 mmHg 71%

    Après-demain, 21 Avril, Samedi

    Heure Température Précipitation Vent Pression Humidité
    00:00 +10°C° 0 mm 1 m/s 742 mmHg 72%
    01:00 +8°C° 0 mm 2 m/s 742 mmHg 73%
    02:00 +8°C° 0 mm 2 m/s 741 mmHg 75%
    03:00 +8°C° 0 mm 2 m/s 741 mmHg 75%
    04:00 +7°C° 0 mm 2 m/s 740 mmHg 75%
    05:00 +7°C° 0 mm 2 m/s 740 mmHg 75%
    06:00 +9°C° 0 mm 2 m/s 740 mmHg 69%
    07:00 +11°C° 0 mm 3 m/s 739 mmHg 64%
    08:00 +12°C° 0 mm 3 m/s 739 mmHg 59%
    09:00 +15°C° 0 mm 4 m/s 739 mmHg 53%
    10:00 +18°C° 0 mm 4 m/s 739 mmHg 48%
    11:00 +20°C° 0 mm 5 m/s 738 mmHg 42%
    12:00 +21°C° 0 mm 6 m/s 738 mmHg 43%
    13:00 +22°C° 0 mm 6 m/s 737 mmHg 43%
    14:00 +23°C° 0 mm 7 m/s 737 mmHg 44%
    15:00 +22°C° 0 mm 6 m/s 736 mmHg 48%
    16:00 +22°C° 0 mm 5 m/s 736 mmHg 53%
    17:00 +21°C° 0 mm 5 m/s 736 mmHg 58%
    18:00 +20°C° 0,1 mm 4 m/s 736 mmHg 63%
    19:00 +18°C° 0,1 mm 4 m/s 736 mmHg 69%
    20:00 +15°C° 0,1 mm 4 m/s 736 mmHg 74%
    21:00 +14°C° 0 mm 4 m/s 736 mmHg 76%
    22:00 +14°C° 0 mm 3 m/s 736 mmHg 79%
    23:00 +13°C° 0 mm 3 m/s 737 mmHg 81%

    22 Avril, Dimanche

    Heure Température Précipitation Vent Pression Humidité
    00:00 +13°C° 0 mm 2 m/s 737 mmHg 82%
    01:00 +12°C° 0 mm 2 m/s 737 mmHg 83%
    02:00 +10°C° 0 mm 2 m/s 737 mmHg 84%
    03:00 +9°C° 0 mm 2 m/s 737 mmHg 84%
    04:00 +9°C° 0 mm 2 m/s 737 mmHg 84%
    05:00 +8°C° 0 mm 2 m/s 737 mmHg 84%
    06:00 +9°C° 0 mm 2 m/s 737 mmHg 78%
    07:00 +10°C° 0 mm 2 m/s 737 mmHg 72%
    08:00 +12°C° 0 mm 2 m/s 737 mmHg 66%
    09:00 +12°C° 0 mm 3 m/s 737 mmHg 60%
    10:00 +14°C° 0 mm 3 m/s 737 mmHg 54%
    11:00 +16°C° 0 mm 3 m/s 737 mmHg 47%
    12:00 +17°C° 0 mm 3 m/s 737 mmHg 46%
    13:00 +17°C° 0 mm 3 m/s 737 mmHg 44%
    14:00 +18°C° 0 mm 4 m/s 737 mmHg 42%
    15:00 +18°C° 0 mm 3 m/s 736 mmHg 43%
    16:00 +18°C° 0 mm 3 m/s 736 mmHg 44%
    17:00 +18°C° 0 mm 3 m/s 736 mmHg 46%
    18:00 +16°C° 0 mm 2 m/s 736 mmHg 52%
    19:00 +14°C° 0 mm 1 m/s 736 mmHg 57%
    20:00 +12°C° 0 mm 1 m/s 736 mmHg 63%
    21:00 +12°C° 0 mm 1 m/s 736 mmHg 65%
    22:00 +11°C° 0 mm 1 m/s 736 mmHg 67%
    23:00 +11°C° 0 mm 1 m/s 736 mmHg 69%

    23 Avril, Lundi

    Heure Température Précipitation Vent Pression Humidité
    00:00 +10°C° 0 mm 1 m/s 736 mmHg 70%
    01:00 +10°C° 0 mm 1 m/s 736 mmHg 71%
    02:00 +9°C° 0 mm 1 m/s 735 mmHg 72%
    03:00 +9°C° 0 mm 1 m/s 735 mmHg 73%
    04:00 +9°C° 0 mm 1 m/s 735 mmHg 73%
    05:00 +9°C° 0 mm 1 m/s 735 mmHg 74%
    06:00 +10°C° 0 mm 1 m/s 735 mmHg 69%
    07:00 +12°C° 0 mm 1 m/s 734 mmHg 65%
    08:00 +14°C° 0 mm 1 m/s 734 mmHg 60%
    09:00 +16°C° 0 mm 1 m/s 734 mmHg 56%
    10:00 +19°C° 0 mm 1 m/s 734 mmHg 51%
    11:00 +21°C° 0 mm 1 m/s 734 mmHg 47%
    12:00 +22°C° 0 mm 1 m/s 734 mmHg 44%
    13:00 +23°C° 0 mm 1 m/s 733 mmHg 42%
    14:00 +24°C° 0 mm 1 m/s 733 mmHg 40%
    15:00 +24°C° 0,1 mm 2 m/s 732 mmHg 44%
    16:00 +24°C° 0,1 mm 2 m/s 732 mmHg 48%
    17:00 +24°C° 0,1 mm 2 m/s 731 mmHg 52%
    18:00 +21°C° 0,3 mm 2 m/s 731 mmHg 61%
    19:00 +19°C° 0,3 mm 3 m/s 730 mmHg 70%
    20:00 +17°C° 0,3 mm 3 m/s 730 mmHg 79%
    21:00 +16°C° 0,3 mm 3 m/s 730 mmHg 81%
    22:00 +15°C° 0,3 mm 4 m/s 730 mmHg 84%
    23:00 +15°C° 0,3 mm 4 m/s 730 mmHg 86%

    24 Avril, Mardi

    Heure Température Précipitation Vent Pression Humidité
    00:00 +14°C° 0,1 mm 4 m/s 730 mmHg 88%
    01:00 +14°C° 0,1 mm 4 m/s 730 mmHg 90%
    02:00 +13°C° 0,1 mm 3 m/s 730 mmHg 93%
    03:00 +13°C° 0,3 mm 3 m/s 730 mmHg 93%
    04:00 +13°C° 0,3 mm 3 m/s 730 mmHg 94%
    05:00 +13°C° 0,3 mm 4 m/s 731 mmHg 95%
    06:00 +13°C° 0,7 mm 4 m/s 731 mmHg 92%
    07:00 +12°C° 0,7 mm 5 m/s 731 mmHg 89%
    08:00 +12°C° 0,7 mm 5 m/s 732 mmHg 86%
    09:00 +13°C° 0,1 mm 5 m/s 732 mmHg 78%
    10:00 +14°C° 0,1 mm 4 m/s 733 mmHg 69%
    11:00 +15°C° 0,1 mm 4 m/s 733 mmHg 61%
    12:00 +15°C° 0 mm 4 m/s 733 mmHg 58%
    13:00 +16°C° 0 mm 5 m/s 733 mmHg 56%
    14:00 +17°C° 0 mm 5 m/s 733 mmHg 54%
    15:00 +17°C° 0,1 mm 5 m/s 732 mmHg 56%
    16:00 +16°C° 0,1 mm 5 m/s 732 mmHg 59%
    17:00 +16°C° 0,1 mm 5 m/s 732 mmHg 62%
    18:00 +14°C° 0,3 mm 4 m/s 732 mmHg 69%
    19:00 +13°C° 0,3 mm 4 m/s 732 mmHg 76%
    20:00 +12°C° 0,3 mm 3 m/s 732 mmHg 83%
    21:00 +11°C° 0,1 mm 4 m/s 732 mmHg 84%
    22:00 +11°C° 0,1 mm 4 m/s 733 mmHg 85%
    23:00 +10°C° 0,1 mm 4 m/s 733 mmHg 86%
    Voir plus